TimeCDT,TemperatureF,Dew PointF,Humidity,Sea Level PressureIn,VisibilityMPH,Wind Direction,Wind SpeedMPH,Gust SpeedMPH,PrecipitationIn,Events,Conditions,WindDirDegrees,DateUTC
12:56 AM,63.0,63.0,100,30.17,5.0,Calm,Calm,-,N/A,,Clear,0,2013-10-02 05:56:00
1:56 AM,63.0,63.0,100,30.17,10.0,Calm,Calm,-,N/A,,Clear,0,2013-10-02 06:56:00
2:56 AM,61.9,61.9,100,30.17,7.0,Calm,Calm,-,N/A,,Clear,0,2013-10-02 07:56:00
3:56 AM,61.9,61.9,100,30.16,7.0,Calm,Calm,-,N/A,,Clear,0,2013-10-02 08:56:00
4:56 AM,61.0,61.0,100,30.17,6.0,Calm,Calm,-,N/A,,Clear,0,2013-10-02 09:56:00
5:56 AM,61.0,61.0,100,30.19,5.0,Calm,Calm,-,N/A,,Clear,0,2013-10-02 10:56:00
6:07 AM,60.8,60.8,100,30.16,2.5,Calm,Calm,-,N/A,,Clear,0,2013-10-02 11:07:00
6:16 AM,60.8,60.8,100,30.16,9.0,Calm,Calm,-,N/A,,Clear,0,2013-10-02 11:16:00
6:56 AM,59.9,59.9,100,30.20,3.0,Calm,Calm,-,N/A,,Clear,0,2013-10-02 11:56:00
7:56 AM,65.8,65.8,100,30.21,10.0,Calm,Calm,-,N/A,,Clear,0,2013-10-02 12:56:00
8:56 AM,72.9,64.9,76,30.22,10.0,South,4.6,-,N/A,,Clear,190,2013-10-02 13:56:00
9:56 AM,75.9,64.9,69,30.21,10.0,SSE,5.8,-,N/A,,Clear,160,2013-10-02 14:56:00
10:56 AM,77.0,64.9,66,30.21,10.0,SSE,6.9,-,N/A,,Clear,160,2013-10-02 15:56:00
11:56 AM,79.9,65.8,62,30.20,10.0,Calm,Calm,-,N/A,,Clear,0,2013-10-02 16:56:00
12:56 PM,81.0,63.9,56,30.19,10.0,SSE,6.9,-,N/A,,Clear,160,2013-10-02 17:56:00
1:56 PM,81.9,63.9,54,30.17,10.0,Calm,Calm,-,N/A,,Clear,0,2013-10-02 18:56:00
2:56 PM,81.0,63.9,56,30.15,10.0,Calm,Calm,-,N/A,,Clear,0,2013-10-02 19:56:00
3:56 PM,79.9,63.0,56,30.14,10.0,Calm,Calm,-,N/A,,Clear,0,2013-10-02 20:56:00
4:56 PM,79.0,63.9,60,30.14,10.0,Calm,Calm,-,N/A,,Clear,0,2013-10-02 21:56:00
5:56 PM,73.9,68.0,82,30.14,10.0,Calm,Calm,-,N/A,,Clear,0,2013-10-02 22:56:00
6:56 PM,70.9,68.0,91,30.14,10.0,Calm,Calm,-,N/A,,Clear,0,2013-10-02 23:56:00
7:56 PM,70.0,68.9,96,30.15,10.0,Calm,Calm,-,0.00,,Clear,0,2013-10-03 00:56:00
8:20 PM,69.8,69.8,100,30.12,8.0,Calm,Calm,-,0.00,Rain,Light Rain,0,2013-10-03 01:20:00
8:56 PM,68.9,68.9,100,30.16,4.0,Calm,Calm,-,0.00,,Clear,0,2013-10-03 01:56:00
9:13 PM,68.0,68.0,100,30.13,1.5,Calm,Calm,-,N/A,,Clear,0,2013-10-03 02:13:00
9:15 PM,68.0,68.0,100,30.13,0.8,Calm,Calm,-,N/A,,Clear,0,2013-10-03 02:15:00
9:25 PM,68.0,68.0,100,30.13,1.2,Calm,Calm,-,N/A,,Clear,0,2013-10-03 02:25:00
9:27 PM,68.0,68.0,100,30.13,2.5,Calm,Calm,-,N/A,,Clear,0,2013-10-03 02:27:00
9:34 PM,68.0,68.0,100,30.13,3.0,Calm,Calm,-,N/A,,Clear,0,2013-10-03 02:34:00
9:42 PM,68.0,68.0,100,30.13,1.8,Calm,Calm,-,N/A,,Clear,0,2013-10-03 02:42:00
9:56 PM,68.0,68.0,100,30.17,2.0,Calm,Calm,-,N/A,,Clear,0,2013-10-03 02:56:00
10:11 PM,68.0,68.0,100,30.14,5.0,Calm,Calm,-,N/A,,Clear,0,2013-10-03 03:11:00
10:56 PM,66.9,66.9,100,30.17,5.0,Calm,Calm,-,N/A,,Clear,0,2013-10-03 03:56:00
11:56 PM,66.9,66.9,100,30.17,7.0,Calm,Calm,-,0.01,,Clear,0,2013-10-03 04:56:00